Location: Unspecified
(0.0000°N, 0.0000°E)
Time: 20:10:05
(UTC+00:00)

deb Kosmos-249 - Visible Passes

Search period start: 14 January 2025 00:00
Search period end: 24 January 2025 00:00
Orbit: 515 x 1315 km, 62.7° (Epoch: 14 January)

Date Brightness Start Highest point End Pass type
(mag) Time Alt. Az. Time Alt. Az. Time Alt. Az.
14 Jan ? 18:55:51 10° SW 19:03:37 45° WNW 19:10:58 10° N visible
15 Jan ? 19:03:42 10° SW 19:10:36 30° WNW 19:17:09 10° N visible
16 Jan ? 19:12:12 10° WSW 19:17:35 19° WNW 19:22:45 10° NNW visible
17 Jan ? 19:22:26 10° W 19:24:35 11° WNW 19:26:42 10° NW visible
18 Jan ? 04:44:33 10° NNE 04:47:26 20° ENE 04:50:24 10° ESE visible
19 Jan ? 04:51:33 16° N 04:54:16 42° ENE 04:58:05 10° SE visible
20 Jan ? 04:59:07 27° NNW 05:01:07 85° WSW 05:05:10 10° SSE visible
21 Jan ? 05:06:39 28° WNW 05:07:59 38° WSW 05:11:47 10° S visible
22 Jan ? 05:14:07 18° W 05:14:53 19° WSW 05:17:49 10° SSW visible
23 Jan ? 03:38:09 13° ESE 03:38:09 13° ESE 03:38:43 10° ESE visible
